SCP
0 0 0 0 0 0 0 0 0 0 0 0 0 0 0 0 0 0 0 0 0 0 0 0 0 0 1 1 1 1 1 1 0 0 0 0 0 0 0 0 0 0 0
0 0 0 -0 -0 0 0 0 0 0 0 0 0 0 0 1 1 0 0 0 0 0 0 0 0 0 1 1 1 1 1 0 0 0 0 0 0 0 0 0 0 0 0
-0 0 0 0 0 -0 0 0 0 0 0 1 1 1 1 1 1 1 1 0 0 0 0 -0 0 0 1 1 0 1 1 0 0 0 0 0 0 0 0 0 0 0 0
0 0 0 0 0 0 0 0 0 0 0 1 1 1 1 1 1 0 0 0 1 1 1 0 0 0 0 0 0 0 0 0 0 0 0 0 0 0 0 0 0 0 0
0 0 0 0 0 0 -0 -0 0 0 -0 0 1 1 1 1 0 0 0 0 1 1 1 1 0 1 1 0 0 0 0 0 0 0 0 0 0 0 0 0 0 0 0
0 0 0 -0 -0 -0 -0 -0 -0 -0 0 1 1 1 1 1 0 0 0 1 1 1 0 0 1 1 0 0 0 0 0 0 0 0 0 0 0 0 0 0 0 0 0
-0 -0 -0 -0 -0 -0 -0 0 -0 -0 -0 0 0 1 0 0 0 1 0 0 0 0 0 0 0 0 0 0 0 0 0 0 0 0 0 0 0 0 -0 -0 0 0 0
-0 -0 -0 -0 0 0 0 0 0 0 0 0 0 1 1 1 0 0 0 0 0 0 0 0 0 0 0 0 0 0 0 0 0 0 0 0 0 0 0 0 0 0 0
0 0 -0 0 0 0 -0 0 0 0 0 0 -0 0 -0 -0 0 0 -0 0 0 0 0 0 0 0 0 0 0 0 0 0 0 0 0 0 0 0 0 0 0 0 0
0 0 0 0 0 0 0 0 0 0 0 0 0 0 0 0 0 0 0 0 0 0 0 0 0 0 0 0 0 0 0 0 0 0 0 0 0 0 0 0 0 0 0
0 -0 -0 0 0 0 0 0 0 0 0 0 0 0 0 0 0 0 0 0 0 0 0 0 0 0 0 0 0 0 0 0 0 0 0 0 0 0 0 0 0 0 0
0 0 -0 -0 -0 -0 0 0 0 0 0 0 0 0 0 0 0 0 0 0 0 0 0 0 0 0 0 0 0 0 0 0 0 0 0 0 0 0 0 0 0 0 0
0 0 0 0 0 0 0 0 0 0 0 0 0 0 0 0 0 0 0 0 0 0 0 0 0 0 0 0 0 0 0 0 0 0 0 0 0 0 0 0 0 0 0
-0 -0 0 0 0 -0 0 0 0 0 0 0 0 0 0 0 0 0 0 0 0 0 0 0 0 0 0 0 0 0 0 0 0 0 0 0 0 0 0 0 0 0 0
-0 0 0 0 0 0 0 0 0 0 0 0 0 0 0 0 0 0 0 0 0 0 0 0 0 0 0 0 0 0 0 0 0 0 0 0 0 0 0 0 0 0 0
-0 -0 0 0 0 0 0 0 0 0 0 0 0 0 0 0 0 0 0 0 0 0 0 0 0 0 0 0 0 0 0 0 0 0 0 0 0 0 0 0 0 0 0
0 0 0 0 0 0 0 0 0 0 0 0 0 0 0 0 0 0 0 0 0 0 0 0 0 0 0 0 0 0 0 0 0 0 0 0 0 0 0 0 0 0 0
0 0 0 0 0 0 0 0 0 0 0 0 0 0 0 0 0 0 0 0 0 0 0 0 0 0 0 0 0 0 0 0 0 0 0 0 0 0 0 0 0 0 0
0 0 0 0 0 0 0 0 0 0 0 0 0 0 0 0 0 0 0 0 0 0 0 0 0 0 0 0 0 0 0 0 0 0 0 0 0 0 0 0 0 0 0
0 0 0 0 0 0 0 0 0 0 0 0 0 0 0 0 0 0 0 0 0 0 0 0 0 0 0 0 0 0 0 0 0 0 0 0 0 0 0 0 0 0 0
0 0 0 0 0 0 0 0 0 0 0 0 0 0 0 0 0 0 0 0 0 0 0 0 0 0 0 0 0 0 0 0 0 0 0 0 0 0 0 0 0 0 0
0 0 0 0 0 0 -0 0 0 0 0 0 0 0 0 0 0 0 0 0 0 0 0 0 0 0 0 0 0 0 0 0 0 0 0 0 -0 0 0 0 0 0 0
0 0 0 0 0 0 -0 -0 -0 0 0 -0 0 0 0 0 0 0 0 0 0 0 -0 -0 0 0 0 0 0 0 0 0 0 -0 -0 -0 0 -0 -0 0 -0 -0 -0
-0 -0 0 0 0 -0 -0 -0 -0 -0 0 -0 -0 0 0 0 0 0 0 0 -0 -0 -0 -0 -0 0 -0 -0 -0 -0 0 0 0 0 -0 0 0 -0 -0 0 -0 0 0
-0 -0 -0 -0 -0 -0 -0 -0 0 0 0 -0 -0 -0 0 0 -0 0 0 -0 -0 0 -0 -0 -0 -0 -0 -0 -0 0 0 0 0 0 -0 0 0 0 0 0 -0 0 0
0 0 -0 -0 -0 -0 -0 -0 0 -0 0 0 0 -0 -0 -0 0 -0 0 0 -0 0 0 0 0 0 0 0 0 0 0 0 0 0 0 0 0 0 0 0 -0 0 0
Wind_Speed_500mb
52 53 50 51 50 54 59 60 57 58 55 54 51 50 50 52 53 54 56 54 53 54 55 56 58 61 62 62 61 66 74 72 61 58 66 55 49 51 47 43 40 35 31
53 56 58 57 59 60 59 57 60 61 58 54 57 57 54 52 55 55 57 59 59 58 61 59 58 59 59 66 63 71 79 75 73 70 66 59 58 54 54 48 44 40 36
57 60 61 72 81 77 65 65 66 64 62 61 62 60 58 55 55 54 58 66 65 62 59 59 60 62 65 66 65 73 84 87 72 63 68 68 65 62 59 54 49 45 42
73 77 74 77 90 88 63 67 65 71 70 68 61 54 55 56 55 55 59 62 61 57 52 53 52 59 63 69 67 75 86 84 58 69 73 78 75 66 62 58 55 51 45
57 71 69 79 83 84 80 83 71 64 66 64 62 55 54 51 58 59 59 53 48 44 48 48 51 55 61 65 66 76 68 70 72 70 71 79 70 66 64 56 58 54 49
65 73 79 71 69 72 85 80 63 72 60 57 55 59 64 56 65 66 62 50 47 48 45 48 49 52 59 67 67 69 66 57 48 47 54 63 69 59 54 50 56 55 55
65 73 66 65 51 58 70 63 66 57 60 56 66 57 65 70 71 61 47 50 46 41 47 46 49 49 54 58 61 60 40 35 32 38 29 24 23 38 32 40 51 50 49
46 53 55 57 60 58 58 67 53 37 42 57 55 55 46 42 67 54 41 37 33 39 38 31 32 33 32 29 25 28 27 22 24 22 27 25 27 31 36 39 40 42 44
32 36 46 52 56 57 53 45 43 53 43 47 55 58 22 28 29 21 21 22 29 25 21 20 21 20 25 30 29 23 22 25 28 29 24 27 28 27 28 31 33 31 29
47 41 39 43 44 44 50 49 42 54 63 71 62 66 65 40 19 12 21 23 26 20 20 21 19 16 16 15 22 25 27 22 29 29 30 31 32 31 31 32 36 38 37
46 45 45 42 41 39 45 52 55 62 58 53 56 64 50 72 53 35 18 27 28 26 25 26 25 23 22 25 26 28 29 32 33 34 40 42 42 40 39 41 42 42 42
52 46 45 46 46 48 41 38 43 49 47 48 51 49 57 53 47 42 34 27 25 20 18 17 18 27 30 34 35 32 32 40 43 39 40 42 44 49 53 52 51 50 52
55 51 49 48 46 45 41 35 31 34 39 47 49 50 50 50 42 35 34 28 24 24 16 16 14 15 19 26 32 38 40 44 44 50 56 55 55 55 58 57 54 62 63
58 54 51 48 47 45 37 27 25 26 23 24 29 31 33 35 29 26 32 32 18 16 18 15 14 13 13 14 18 24 34 41 45 47 50 56 64 64 60 60 61 62 62
59 53 50 47 40 36 33 32 27 21 19 20 21 23 23 23 25 28 28 27 20 13 13 19 15 19 18 19 19 21 25 27 29 29 29 30 35 45 56 60 62 61 66
55 46 39 35 32 29 27 27 22 18 13 15 15 17 21 25 24 20 19 17 15 6 11 9 12 21 25 25 29 29 34 37 42 43 47 48 51 55 59 62 64 65 64
34 30 27 24 26 32 31 24 24 20 17 19 24 21 18 17 18 18 15 13 13 12 9 9 16 25 29 34 37 40 45 49 51 58 58 58 59 62 63 62 64 64 64
36 31 27 26 27 29 30 30 22 18 19 10 17 26 28 23 23 18 12 5 5 9 4 5 17 18 29 37 43 46 51 51 54 51 54 53 55 60 67 73 76 75 73
44 36 30 30 31 35 37 32 20 16 14 22 28 31 29 22 18 12 13 17 19 18 17 11 8 16 18 23 20 22 26 30 29 30 27 26 26 24 29 39 42 41 37
43 40 36 30 28 28 32 27 22 17 15 16 19 20 27 29 28 27 19 15 11 7 5 3 4 5 6 11 12 13 14 20 17 12 16 11 8 10 9 5 11 16 21
39 33 27 28 27 27 31 27 23 19 22 23 22 16 19 14 15 14 6 7 10 9 11 9 10 10 10 9 8 11 19 18 10 4 4 5 8 6 7 8 9 8 11
42 38 35 35 31 34 31 28 23 20 19 21 20 19 17 14 11 11 19 21 22 17 16 13 11 8 10 9 11 15 15 18 3 8 3 8 10 11 10 9 8 9 15
45 45 41 35 32 29 29 25 22 21 20 19 19 20 20 19 20 23 29 28 27 22 17 14 11 9 10 9 7 12 17 9 4 6 4 5 10 12 12 7 10 16 19
49 48 45 44 40 43 35 24 19 20 22 23 26 26 26 32 32 32 23 20 17 15 13 12 9 8 10 8 8 11 13 15 11 6 3 7 12 8 8 13 23 30 30
46 41 47 48 47 45 44 39 27 23 25 26 30 36 35 34 30 24 22 19 17 16 14 11 11 11 13 11 9 11 12 9 8 6 6 9 8 12 8 12 24 28 18
48 47 44 46 47 47 49 41 33 30 31 31 36 38 34 30 26 23 19 19 17 16 15 12 9 9 11 13 8 4 5 4 4 5 12 10 11 13 8 13 25 19 18
Wind_Direction_500mb
279 281 281 283 285 287 285 278 272 268 265 258 254 256 258 264 265 267 270 271 269 267 265 261 258 255 250 249 252 249 244 248 249 261 253 247 257 255 252 249 244 242 240
282 285 285 288 288 281 277 282 279 271 265 256 252 255 260 264 271 272 275 275 271 266 264 264 264 261 254 252 255 248 247 246 245 267 246 246 252 250 247 246 243 241 235
305 295 290 291 291 292 285 283 278 275 271 263 253 256 261 263 264 268 284 278 270 272 270 266 261 256 258 252 254 252 248 250 252 254 249 250 250 244 244 244 240 238 234
275 276 280 271 293 275 276 287 286 280 272 265 256 254 262 264 265 268 292 282 271 273 263 259 258 254 253 248 253 253 240 242 246 261 258 247 247 240 238 236 241 236 235
270 279 262 267 281 267 270 282 278 274 281 279 256 253 258 265 271 276 291 278 269 264 262 261 258 254 251 252 253 253 271 269 274 267 238 240 234 234 233 227 234 236 237
266 281 271 280 264 265 261 278 278 264 265 267 273 274 266 266 273 279 282 264 257 267 265 267 265 256 253 255 258 265 266 265 267 264 249 244 238 230 222 221 231 234 233
276 278 274 278 279 266 274 271 287 286 263 260 267 268 272 255 279 265 262 259 257 261 269 268 265 261 261 261 257 255 249 249 245 240 222 218 226 228 226 221 225 228 227
298 290 286 283 283 286 281 274 279 263 260 251 262 279 278 274 271 259 251 252 257 265 265 263 267 267 262 263 237 219 222 210 217 199 200 210 222 221 225 229 230 231 240
309 292 284 281 281 282 283 284 272 251 275 267 271 262 254 232 223 230 236 245 258 245 256 259 262 260 250 240 226 196 210 224 215 223 206 191 193 206 218 219 220 220 222
310 311 312 307 291 283 283 281 274 268 278 284 281 271 246 242 242 230 233 226 219 231 243 249 247 241 226 218 208 195 214 223 219 216 221 213 210 220 220 218 215 216 220
315 311 310 315 314 299 285 277 272 269 270 272 262 258 243 236 244 238 238 214 227 240 242 240 244 237 223 216 210 219 230 227 227 229 225 223 225 233 233 232 235 238 238
322 317 316 310 315 320 311 296 283 272 264 262 255 254 248 237 236 236 215 202 198 200 206 224 231 229 228 225 225 223 224 229 238 235 241 243 246 246 240 233 235 240 243
317 316 315 315 313 318 318 312 299 289 267 256 250 258 251 247 246 236 221 207 193 195 195 198 206 216 223 229 230 232 233 242 246 246 251 254 253 252 251 254 254 255 247
308 306 306 313 315 318 323 311 300 287 280 268 254 241 251 247 233 213 209 202 176 176 197 204 209 222 236 234 237 239 248 248 250 254 255 253 252 253 256 260 260 263 263
301 299 297 309 312 314 317 313 302 288 278 262 238 227 214 203 188 190 195 197 200 174 194 216 222 236 242 246 247 247 246 250 251 247 249 252 253 251 251 254 260 262 263
302 303 306 305 302 300 302 298 293 283 249 226 212 195 180 174 172 177 178 188 207 214 229 200 218 234 240 244 249 252 259 261 259 261 263 260 259 257 255 253 250 249 251
339 332 335 329 327 322 317 298 288 270 234 211 203 198 190 181 174 170 178 192 213 224 235 240 233 245 250 253 259 263 267 268 272 269 272 271 271 270 267 261 257 255 253
14 14 6 2 6 0 351 336 309 283 275 169 137 146 146 141 148 133 126 138 239 247 241 239 254 266 260 266 271 275 277 278 277 281 279 278 275 273 270 267 266 266 265
29 32 33 36 41 50 50 50 57 75 83 92 69 59 66 56 52 36 351 329 310 290 275 261 268 279 281 284 295 301 299 296 296 292 296 296 293 293 286 269 264 268 267
23 30 31 30 30 30 29 26 25 44 57 54 33 11 358 341 354 352 336 319 303 314 313 3 32 346 346 328 343 346 341 330 317 324 319 321 337 354 346 296 266 261 258
14 10 11 19 29 37 29 24 31 50 55 61 36 41 38 23 11 1 32 66 57 51 52 56 52 46 24 39 33 4 1 359 349 328 57 32 2 8 338 326 333 314 280
19 22 27 28 30 42 36 42 47 54 46 30 31 28 18 24 32 69 76 72 67 66 66 60 50 45 53 54 34 14 29 25 46 343 237 23 10 1 349 310 308 321 301
33 38 39 39 39 36 29 28 25 20 17 13 29 50 67 77 87 85 79 74 67 64 65 64 56 58 69 46 47 39 15 17 53 18 103 26 352 339 346 347 319 326 306
38 41 41 42 41 39 30 24 25 43 48 61 78 77 77 85 91 90 81 60 42 33 42 57 67 51 104 104 62 69 52 77 84 107 37 19 0 325 312 331 330 320 308
39 39 45 46 44 37 31 34 51 56 61 70 75 82 84 82 78 66 54 50 48 44 44 68 72 79 133 122 104 60 66 99 91 86 334 327 355 351 308 315 327 339 344
42 47 50 48 42 43 40 41 57 58 67 70 76 81 78 71 61 56 51 51 54 55 57 61 72 99 134 129 138 67 3 11 335 300 329 340 344 3 310 322 345 8 14
Wind_Speed_850mb
52 53 50 51 50 54 59 60 57 58 55 54 51 50 50 52 53 54 56 54 53 54 55 56 58 61 62 62 61 66 74 72 61 58 66 55 49 51 47 43 40 35 31
53 56 58 57 59 60 59 57 60 61 58 54 57 57 54 52 55 55 57 59 59 58 61 59 58 59 59 66 63 71 79 75 73 70 66 59 58 54 54 48 44 40 36
57 60 61 72 81 77 65 65 66 64 62 61 62 60 58 55 55 54 58 66 65 62 59 59 60 62 65 66 65 73 84 87 72 63 68 68 65 62 59 54 49 45 42
73 77 74 77 90 88 63 67 65 71 70 68 61 54 55 56 55 55 59 62 61 57 52 53 52 59 63 69 67 75 86 84 58 69 73 78 75 66 62 58 55 51 45
57 71 69 79 83 84 80 83 71 64 66 64 62 55 54 51 58 59 59 53 48 44 48 48 51 55 61 65 66 76 68 70 72 70 71 79 70 66 64 56 58 54 49
65 73 79 71 69 72 85 80 63 72 60 57 55 59 64 56 65 66 62 50 47 48 45 48 49 52 59 67 67 69 66 57 48 47 54 63 69 59 54 50 56 55 55
65 73 66 65 51 58 70 63 66 57 60 56 66 57 65 70 71 61 47 50 46 41 47 46 49 49 54 58 61 60 40 35 32 38 29 24 23 38 32 40 51 50 49
46 53 55 57 60 58 58 67 53 37 42 57 55 55 46 42 67 54 41 37 33 39 38 31 32 33 32 29 25 28 27 22 24 22 27 25 27 31 36 39 40 42 44
32 36 46 52 56 57 53 45 43 53 43 47 55 58 22 28 29 21 21 22 29 25 21 20 21 20 25 30 29 23 22 25 28 29 24 27 28 27 28 31 33 31 29
47 41 39 43 44 44 50 49 42 54 63 71 62 66 65 40 19 12 21 23 26 20 20 21 19 16 16 15 22 25 27 22 29 29 30 31 32 31 31 32 36 38 37
46 45 45 42 41 39 45 52 55 62 58 53 56 64 50 72 53 35 18 27 28 26 25 26 25 23 22 25 26 28 29 32 33 34 40 42 42 40 39 41 42 42 42
52 46 45 46 46 48 41 38 43 49 47 48 51 49 57 53 47 42 34 27 25 20 18 17 18 27 30 34 35 32 32 40 43 39 40 42 44 49 53 52 51 50 52
55 51 49 48 46 45 41 35 31 34 39 47 49 50 50 50 42 35 34 28 24 24 16 16 14 15 19 26 32 38 40 44 44 50 56 55 55 55 58 57 54 62 63
58 54 51 48 47 45 37 27 25 26 23 24 29 31 33 35 29 26 32 32 18 16 18 15 14 13 13 14 18 24 34 41 45 47 50 56 64 64 60 60 61 62 62
59 53 50 47 40 36 33 32 27 21 19 20 21 23 23 23 25 28 28 27 20 13 13 19 15 19 18 19 19 21 25 27 29 29 29 30 35 45 56 60 62 61 66
55 46 39 35 32 29 27 27 22 18 13 15 15 17 21 25 24 20 19 17 15 6 11 9 12 21 25 25 29 29 34 37 42 43 47 48 51 55 59 62 64 65 64
34 30 27 24 26 32 31 24 24 20 17 19 24 21 18 17 18 18 15 13 13 12 9 9 16 25 29 34 37 40 45 49 51 58 58 58 59 62 63 62 64 64 64
36 31 27 26 27 29 30 30 22 18 19 10 17 26 28 23 23 18 12 5 5 9 4 5 17 18 29 37 43 46 51 51 54 51 54 53 55 60 67 73 76 75 73
44 36 30 30 31 35 37 32 20 16 14 22 28 31 29 22 18 12 13 17 19 18 17 11 8 16 18 23 20 22 26 30 29 30 27 26 26 24 29 39 42 41 37
43 40 36 30 28 28 32 27 22 17 15 16 19 20 27 29 28 27 19 15 11 7 5 3 4 5 6 11 12 13 14 20 17 12 16 11 8 10 9 5 11 16 21
39 33 27 28 27 27 31 27 23 19 22 23 22 16 19 14 15 14 6 7 10 9 11 9 10 10 10 9 8 11 19 18 10 4 4 5 8 6 7 8 9 8 11
42 38 35 35 31 34 31 28 23 20 19 21 20 19 17 14 11 11 19 21 22 17 16 13 11 8 10 9 11 15 15 18 3 8 3 8 10 11 10 9 8 9 15
45 45 41 35 32 29 29 25 22 21 20 19 19 20 20 19 20 23 29 28 27 22 17 14 11 9 10 9 7 12 17 9 4 6 4 5 10 12 12 7 10 16 19
49 48 45 44 40 43 35 24 19 20 22 23 26 26 26 32 32 32 23 20 17 15 13 12 9 8 10 8 8 11 13 15 11 6 3 7 12 8 8 13 23 30 30
46 41 47 48 47 45 44 39 27 23 25 26 30 36 35 34 30 24 22 19 17 16 14 11 11 11 13 11 9 11 12 9 8 6 6 9 8 12 8 12 24 28 18
48 47 44 46 47 47 49 41 33 30 31 31 36 38 34 30 26 23 19 19 17 16 15 12 9 9 11 13 8 4 5 4 4 5 12 10 11 13 8 13 25 19 18
Wind_Direction_850mb
279 281 281 283 285 287 285 278 272 268 265 258 254 256 258 264 265 267 270 271 269 267 265 261 258 255 250 249 252 249 244 248 249 261 253 247 257 255 252 249 244 242 240
282 285 285 288 288 281 277 282 279 271 265 256 252 255 260 264 271 272 275 275 271 266 264 264 264 261 254 252 255 248 247 246 245 267 246 246 252 250 247 246 243 241 235
305 295 290 291 291 292 285 283 278 275 271 263 253 256 261 263 264 268 284 278 270 272 270 266 261 256 258 252 254 252 248 250 252 254 249 250 250 244 244 244 240 238 234
275 276 280 271 293 275 276 287 286 280 272 265 256 254 262 264 265 268 292 282 271 273 263 259 258 254 253 248 253 253 240 242 246 261 258 247 247 240 238 236 241 236 235
270 279 262 267 281 267 270 282 278 274 281 279 256 253 258 265 271 276 291 278 269 264 262 261 258 254 251 252 253 253 271 269 274 267 238 240 234 234 233 227 234 236 237
266 281 271 280 264 265 261 278 278 264 265 267 273 274 266 266 273 279 282 264 257 267 265 267 265 256 253 255 258 265 266 265 267 264 249 244 238 230 222 221 231 234 233
276 278 274 278 279 266 274 271 287 286 263 260 267 268 272 255 279 265 262 259 257 261 269 268 265 261 261 261 257 255 249 249 245 240 222 218 226 228 226 221 225 228 227
298 290 286 283 283 286 281 274 279 263 260 251 262 279 278 274 271 259 251 252 257 265 265 263 267 267 262 263 237 219 222 210 217 199 200 210 222 221 225 229 230 231 240
309 292 284 281 281 282 283 284 272 251 275 267 271 262 254 232 223 230 236 245 258 245 256 259 262 260 250 240 226 196 210 224 215 223 206 191 193 206 218 219 220 220 222
310 311 312 307 291 283 283 281 274 268 278 284 281 271 246 242 242 230 233 226 219 231 243 249 247 241 226 218 208 195 214 223 219 216 221 213 210 220 220 218 215 216 220
315 311 310 315 314 299 285 277 272 269 270 272 262 258 243 236 244 238 238 214 227 240 242 240 244 237 223 216 210 219 230 227 227 229 225 223 225 233 233 232 235 238 238
322 317 316 310 315 320 311 296 283 272 264 262 255 254 248 237 236 236 215 202 198 200 206 224 231 229 228 225 225 223 224 229 238 235 241 243 246 246 240 233 235 240 243
317 316 315 315 313 318 318 312 299 289 267 256 250 258 251 247 246 236 221 207 193 195 195 198 206 216 223 229 230 232 233 242 246 246 251 254 253 252 251 254 254 255 247
308 306 306 313 315 318 323 311 300 287 280 268 254 241 251 247 233 213 209 202 176 176 197 204 209 222 236 234 237 239 248 248 250 254 255 253 252 253 256 260 260 263 263
301 299 297 309 312 314 317 313 302 288 278 262 238 227 214 203 188 190 195 197 200 174 194 216 222 236 242 246 247 247 246 250 251 247 249 252 253 251 251 254 260 262 263
302 303 306 305 302 300 302 298 293 283 249 226 212 195 180 174 172 177 178 188 207 214 229 200 218 234 240 244 249 252 259 261 259 261 263 260 259 257 255 253 250 249 251
339 332 335 329 327 322 317 298 288 270 234 211 203 198 190 181 174 170 178 192 213 224 235 240 233 245 250 253 259 263 267 268 272 269 272 271 271 270 267 261 257 255 253
14 14 6 2 6 0 351 336 309 283 275 169 137 146 146 141 148 133 126 138 239 247 241 239 254 266 260 266 271 275 277 278 277 281 279 278 275 273 270 267 266 266 265
29 32 33 36 41 50 50 50 57 75 83 92 69 59 66 56 52 36 351 329 310 290 275 261 268 279 281 284 295 301 299 296 296 292 296 296 293 293 286 269 264 268 267
23 30 31 30 30 30 29 26 25 44 57 54 33 11 358 341 354 352 336 319 303 314 313 3 32 346 346 328 343 346 341 330 317 324 319 321 337 354 346 296 266 261 258
14 10 11 19 29 37 29 24 31 50 55 61 36 41 38 23 11 1 32 66 57 51 52 56 52 46 24 39 33 4 1 359 349 328 57 32 2 8 338 326 333 314 280
19 22 27 28 30 42 36 42 47 54 46 30 31 28 18 24 32 69 76 72 67 66 66 60 50 45 53 54 34 14 29 25 46 343 237 23 10 1 349 310 308 321 301
33 38 39 39 39 36 29 28 25 20 17 13 29 50 67 77 87 85 79 74 67 64 65 64 56 58 69 46 47 39 15 17 53 18 103 26 352 339 346 347 319 326 306
38 41 41 42 41 39 30 24 25 43 48 61 78 77 77 85 91 90 81 60 42 33 42 57 67 51 104 104 62 69 52 77 84 107 37 19 0 325 312 331 330 320 308
39 39 45 46 44 37 31 34 51 56 61 70 75 82 84 82 78 66 54 50 48 44 44 68 72 79 133 122 104 60 66 99 91 86 334 327 355 351 308 315 327 339 344
42 47 50 48 42 43 40 41 57 58 67 70 76 81 78 71 61 56 51 51 54 55 57 61 72 99 134 129 138 67 3 11 335 300 329 340 344 3 310 322 345 8 14